www.pogodaiklimat.ru

Погода и климат >> Архив погоды >> Намибия >> Walvis Bay Airport


ПОГОДА в Walvis Bay Airport

  • Прогноз погоды в Walvis Bay Airport
  • Монитор погоды в Walvis Bay Airport
  • Климат города

АРХИВ ПОГОДЫ в Walvis Bay Airport

Время (UTC), дата Ветер
(напр.,м/с)
 
Видим.   Явления Облачность Т
(С)
Тd
(С)
f
(%)
Тe
(С)
Тes
(С)
Комфортность P
(гПа)
Po
(гПа)
Тmin
(С)
Tmax
(С)
R
(мм)
R24
(мм)
S
(см)
00 11.12 СВ 2 н/о н/о +14.9 +11.3 79 +15 +15 1016.8 1005.9 +14.9 +20.0
06 11.12 С 4 >70 км 10/10 600 м
[St]
+16.9 +12.5 75 +16 +16 1019.5 1008.7 +14.3
09 11.12 С 5 >70 км 5/5 1000 м
[Sc]
+19.7 +11.5 59 +21 +26 комфорт 1019.9 1009.2 +14.3 +19.9
12 11.12 СЗ 5 >70 км ясно +21.7 +11.2 51 +24 +36 комфорт 1018.1 1007.5 +14.3 +22.3
15 11.12 З 6 н/о н/о +22.0 +12.9 56 +25 +25 комфорт 1017.1 1006.5 +21.9 +23.3
18 11.12 ЮЗ 4 >70 км 8/8 600 м
[Sc]
+18.2 +12.7 70 +18 +18 1018.1 1007.4 +18.2 +23.3
21 11.12 З 2 н/о н/о +16.6 +12.4 76 +17 +17 1019.3 1008.5 +16.6 +23.3
00 12.12 штиль 0 н/о н/о +15.1 +11.9 81 +15 +15 1018.0 1007.1 +14.7 +23.3
03 12.12 ЮВ 1 >70 км 10/10 300 м
[St]
+15.5 +12.1 80 +16 +16 1017.6 1006.8 +13.5 +23.3
06 12.12 С 2 >70 км 10/10 300 м
[St]
+16.4 +12.6 78 +17 +17 1018.5 1007.7 +13.5
09 12.12 ЮЗ 2 >70 км 1/1 600 м
[Sc]
+19.6 +13.1 66 +22 +37 комфорт 1018.5 1007.8 +13.5 +19.7
12 12.12 З 7 >70 км ясно +24.5 +13.2 49 +27 +33 жарко 1016.7 1006.2 +13.5 +25.6
15 12.12 З 8 н/о н/о +24.1 +13.5 52 +26 +26 жарко 1014.9 1004.4 +23.3 +25.6
18 12.12 З 6 >70 км ясно +18.9 +14.6 76 +19 +19 1016.0 1005.3 +18.9 +25.6
21 12.12 З 2 н/о н/о +16.7 +14.5 87 +17 +17 1017.5 1006.7 +16.7 +25.6
00 13.12 С 2 н/о н/о +16.8 +14.8 88 +17 +17 1016.4 1005.6 +16.5 +25.6
03 13.12 СВ 4 н/о н/о +17.2 +14.5 84 +17 +17 1016.2 1005.4 +16.5 +25.6
06 13.12 С 1 >70 км 10/10 300 м
[St]
+17.2 +14.1 82 +18 +18 1017.3 1006.5 +16.5
09 13.12 СЗ 3 >70 км ясно +22.2 +14.6 62 +26 +40 душно 1017.3 1006.7 +16.5 +22.2
12 13.12 З 5 >70 км ясно +23.9 +14.1 54 +26 +39 жарко 1016.1 1005.6 +16.5 +24.3
15 13.12 З 6 >70 км ясно +23.6 +13.6 53 +26 +29 жарко 1014.7 1004.2 +23.5 +25.2
18 13.12 З 5 >70 км ясно +18.7 +13.4 71 +19 +19 1016.0 1005.3 +18.7 +25.2
21 13.12 С 3 н/о н/о +16.7 +13.2 80 +17 +17 1017.6 1006.8 +16.7 +25.2
03 14.12 СВ 5 >70 км 10/10 300 м
[St]
+16.1 +13.4 84 +15 +15 1016.9 1006.1 +16.0 +25.2
06 14.12 СВ 3 н/о н/о +17.0 +13.7 81 +17 +17 1018.6 1007.8 +16.0
09 14.12 З 3 >70 км ясно +20.6 +13.8 65 +23 +38 комфорт 1018.7 1008.0 +16.0 +20.9
12 14.12 З 5 >70 км ясно +23.4 +12.5 50 +26 +37 жарко 1016.6 1006.1 +16.0 +23.7
15 14.12 З 5 >70 км ясно +25.2 +12.6 45 +27 +31 жарко 1014.7 1004.2 +23.3 +25.5
18 14.12 ЮЗ 5 >70 км ясно +19.7 +12.8 64 +21 +21 комфорт 1015.3 1004.6 +19.7 +25.7
21 14.12 СЗ 2 н/о н/о +17.0 +12.3 74 +18 +18 1016.7 1005.9 +17.0 +25.7
00 15.12 СВ 4 н/о н/о +15.7 +12.4 81 +15 +15 1015.7 1004.9 +15.7 +25.7
03 15.12 СВ 3 н/о н/о +14.9 +12.4 85 +14 +14 1015.3 1004.5 +14.8 +25.7
06 15.12 С 5 >70 км 9/9 300 м
[Sc]
+16.4 +13.5 83 +16 +16 1016.7 1005.9 +14.8
09 15.12 С 3 >70 км ясно +21.0 +13.8 63 +24 +40 комфорт 1015.9 1005.3 +14.8 +21.3
12 15.12 З 4 >70 км ясно +25.9 +12.9 45 +28 +43 жарко 1013.3 1002.9 +14.8 +25.9
03 16.12 С 4 >70 км 10/10 300 м
[St]
+16.7 +13.6 82 +16 +16 1015.2 1004.4 +16.3 +27.6
06 16.12 С 4 >70 км 8/8 300 м
[Sc]
+17.6 +14.1 80 +17 +18 1015.5 1004.8 +16.3
12 16.12 С 6 >70 км ясно +21.2 +13.7 62 +24 +33 комфорт 1014.1 1003.5 +16.3 +21.9
15 16.12 СЗ 5 >70 км ясно +19.3 +13.5 69 +21 +25 комфорт 1012.9 1002.2 +19.0 +22.0
18 16.12 С 4 >70 км 1/1 300 м
[Sc]
+16.8 +12.9 78 +16 +16 1013.8 1003.0 +16.8 +22.0
21 16.12 С 4 н/о н/о +15.6 +13.4 87 +15 +15 1015.5 1004.7 +15.6 +22.0
00 17.12 С 5 н/о н/о +15.7 +13.9 89 +15 +15 1015.4 1004.6 +15.4 +22.0
03 17.12 СВ 7 >70 км 10/10 200 м
[St]
+16.2 +14.0 87 +15 +15 1015.2 1004.4 +15.4 +22.0
06 17.12 С 7 >70 км 10/10 300 м
[St]
+17.0 +14.1 83 +16 +16 1016.3 1005.5 +15.4

 

Местоположение метеостанции Walvis Bay Airport (Намибия): широта -22.98 долгота 14.65 высота над уровнем моря 88 м.

В архиве по умолчанию представлена погода в Walvis Bay Airport за последнюю неделю. Архивные данные за месяц целиком и за предыдущие месяцы, начиная с января 2011 года, Вы можете получить, выбрав интересующий диапазон дат из раскрывающегося списка и нажав кнопку "Ввод!".


*Определитесь, кто Вы:
робот инопланетянин человек

Внимание! Время в таблицах - всемирное. Для получения местного времени необходимо прибавить поправку, которая в Walvis Bay Airport равна 2 ч.

Смотрите также архив погоды в соседних городах и на ближайших метеорологических станциях:

Погода в Windhoek (Намибия) (256 км)
Погода в Windhoek Int Airport (Намибия) (295 км)
Погода в Otjiwarongo (Намибия) (348 км)
Погода в Eros Airport (Намибия) (356 км)
Погода в Luderitz Diaz Point (Намибия) (409 км)
Погода в Okaukuejo (Намибия) (432 км)
Погода в Gobabis (Намибия) (447 км)
Погода в Grootfontein (Намибия) (520 км)
Погода в Keetmanshoop (Намибия) (528 км)
Погода в Ondangwa Airport (Намибия) (579 км)

Пояснения к столбцам:

Ветер - указаны скорость ветра в м/с - средняя за 10 мин, порывы в срок и между сроками (в фигурных скобках) и направление, откуда дует ветер: С - северный, СВ - северо-восточный, В - восточный, ЮВ - юго-восточный, Ю - южный, ЮЗ - юго-западный, З - западный, СЗ - северо-западный.
Видимость - горизонтальная дальность видимости в метрах или километрах. При видимости от 1 до 10 км при отсутствии осадков обычно наблюдается дымка, при ухудшении видимости до 1 км и менее - туман. В сухую погоду видимость может ухудшаться дымом, пылью или мглою.
Явления - указаны атмосферные явления, наблюдавшиеся в срок или в последний час перед сроком; фигурными скобками обозначены явления, наблюдавшиеся между сроками (за 1-3 часа до срока); квадратными скобками обозначены град или гололедные отложения с указанием их диаметра в мм.
Облачность - указаны через наклонную черту общая и нижняя облачность в баллах и высота нижней границы облаков в метрах; квадратными скобками обозначены формы облаков: Ci - перистые, Cs - перисто-слоистые, Cc - перисто-кучевые, Ac - высококучевые, As - высокослоистые, Sc - слоисто-кучевые, Ns - слоисто-дождевые, Cu - кучевые, Cb - кучево-дождевые. Подробнее классификацию облаков см. в Атласе облаков (PDF).
T - Температура воздуха - температура, измеренная на высоте 2 м над землей.
Td - Температура точки росы - температура, при понижении до которой содержащийся в воздухе водяной пар достигнет насыщения.
f - Относительная влажность воздуха - влажноcть воздуха, измеренная на высоте 2 м над землей.
Te - Эффективная температура - температура, которую ощущает одетый по сезону человек в тени. Характеристика душности погоды. При расчете учитывается влияние влажности воздуха и скорости ветра на теплоощущения человека.
Tes - Эффективная температура на солнце - температура, которую ощущает человек, с поправкой на солнечный нагрев. Характеристика знойности погоды. Зависит от высоты солнца над горизонтом, облачности и скорости ветра. Ночью, в пасмурную погоду, а также при ветре 12 м/с и более поправка равна нулю.
P - Атмосферное давление - приведенное к уровню моря атмосферное давление.
Po - Атмосферное давление - измеренное на уровне метеостанции атмосферное давление.
Tmin - Минимальная температура - минимум температуры воздуха на высоте 2 м над землей.
Tmax - Максимальная температура - максимум температуры воздуха на высоте 2 м над землей.
R - Количество осадков - Количество выпавших осадков за период времени, мм. При наведении курсора мыши на число - период времени, за который выпало указанное количество осадков.
R24 - Количество осадков - Количество выпавших осадков за 24 часа, мм.
S - Снежный покров - Высота снежного покрова, см. При наведении курсора мыши на число - состояние снежного покрова и степень покрытия местности в баллах.